Location: Knowlton
(51.2333°N, 1.2667°E)
Time: 14:45:01
(UTC+00:00)

AO-27 - Visible Passes

Search period start: 09 December 2021 00:00
Search period end: 19 December 2021 00:00
Orbit: 786 x 796 km, 98.9° (Epoch: 08 December)

Date Brightness Start Highest point End Pass type
(mag) Time Alt. Az. Time Alt. Az. Time Alt. Az.
09 Dec 10.9 05:47:50 10° ENE 05:49:12 11° E 05:50:34 10° E visible
09 Dec 8.4 17:09:13 10° ESE 17:13:47 31° ENE 17:18:21 10° N visible
09 Dec 8.5 18:48:01 10° S 18:53:05 49° W 18:58:10 10° NNW visible
10 Dec 9.3 06:55:27 10° NNE 07:00:22 39° E 07:05:15 10° SSE visible
10 Dec 8.9 16:41:10 10° E 16:44:56 20° NE 16:48:41 10° N visible
10 Dec 7.7 18:18:34 10° SSE 18:23:49 82° WSW 18:29:06 10° NNW visible
10 Dec 10.5 20:01:27 10° WSW 20:04:07 14° W 20:06:47 10° NW visible
11 Dec 10.2 06:26:45 10° NE 06:30:56 24° E 06:35:05 10° SE visible
11 Dec 7.6 17:49:31 10° SSE 17:54:41 61° ENE 17:59:51 10° N visible
11 Dec 9.8 19:30:22 10° SW 19:34:33 24° W 19:38:45 10° NW visible
12 Dec 10.7 05:58:43 10° NE 06:01:21 14° E 06:04:00 10° ESE visible
12 Dec 8.1 17:20:53 10° SE 17:25:39 37° ENE 17:30:28 10° N visible
12 Dec 8.9 19:00:13 10° SSW 19:05:06 39° W 19:10:03 10° NNW visible
13 Dec 8.8 07:07:20 10° NNE 07:12:25 48° E 07:17:27 10° S visible
13 Dec 8.7 16:52:39 10° ESE 16:56:45 24° ENE 17:00:53 10° N visible
13 Dec 8.0 18:30:36 10° S 18:35:48 67° WSW 18:41:03 10° NNW visible
13 Dec 10.7 20:14:52 10° W 20:16:17 11° W 20:17:41 10° WNW visible
14 Dec 9.9 06:38:30 10° NE 06:43:02 29° E 06:47:31 10° SSE visible
14 Dec 9.1 16:24:57 10° E 16:27:58 16° NE 16:31:01 10° NNE visible
14 Dec 7.5 18:01:24 10° SSE 18:06:37 74° ENE 18:11:52 10° NNW visible
14 Dec 10.1 19:42:56 10° SW 19:46:39 19° W 19:50:24 10° NW visible
15 Dec 10.5 06:10:06 10° NE 06:13:30 17° E 06:16:52 10° SE visible
15 Dec 7.9 17:32:35 10° SE 17:37:33 45° ENE 17:42:32 10° N visible
15 Dec 9.3 19:12:30 10° SSW 19:17:10 32° W 19:21:53 10° NNW visible
16 Dec 8.5 17:04:11 10° ESE 17:08:36 28° ENE 17:13:03 10° N visible
16 Dec 8.3 18:42:41 10° S 18:47:48 54° W 18:52:58 10° NNW visible
17 Dec 9.5 06:50:18 10° NNE 06:55:05 35° E 06:59:50 10° SSE visible
17 Dec 9.0 16:36:15 10° E 16:39:47 19° NE 16:43:19 10° N visible
17 Dec 7.6 18:13:19 10° SSE 18:18:35 90° NE 18:23:52 10° NNW visible
17 Dec 10.4 19:55:41 10° SW 19:58:47 16° W 20:01:54 10° NW visible
18 Dec 10.4 06:21:41 10° NE 06:25:37 21° E 06:29:31 10° SE visible
18 Dec 7.7 17:44:22 10° SE 17:49:28 55° ENE 17:54:35 10° N visible
18 Dec 9.6 19:24:52 10° SSW 19:29:14 26° W 19:33:38 10° NW visible
